F.C. Meralco Manila - Philippines Football League
85
sp_team-template-default,single,single-sp_team,postid-85,sportspress,sportspress-page,sp-show-image,ajax_fade,page_not_loaded,boxed,,qode-title-hidden,qode_grid_1200,footer_responsive_adv,hide_top_bar_on_mobile_header,qode-theme-ver-11.1,qode-theme-philippines football league,wpb-js-composer js-comp-ver-5.1.1,vc_responsive

F.C. Meralco Manila

Name: FC Meralco Manila
City/Province: Manila
Venue: Rizal Memorial Football Stadium
Head Coach: Jose Ariston Caslib

DateMatchTime/Results
2017-05-06 19:00:11May 6, 2017 STALLION LAGUNA FC vs FC MERALCO MANILA1 - 5
2017-05-13 16:00:38May 13, 2017 FC MERALCO MANILA vs ILOCOS UNITED FC2 - 1
2017-05-20 16:00:31May 20, 2017 JPV MARIKINA FC vs FC MERALCO MANILA0 - 1
2017-06-03 19:00:49June 3, 2017 FC MERALCO vs DAVAO AGUILAS FC2 - 0
2017-06-17 16:00:56June 17, 2017 KAYA FC-MAKATI vs FC MERALCO MANILA0 - 2
2017-06-21 16:00:37June 21, 2017 DAVAO AGUILAS FC vs FC MERALCO MANILA2 - 2
2017-06-24 16:00:17June 24, 2017 FC MERALCO MANILA vs STALLION LAGUNA FC1 - 1
2017-07-01 16:00:57July 1, 2017 ILOCOS UNITED FC vs FC MERALCO MANILA0 - 1
2017-07-08 19:00:15July 8, 2017 FC MERALCO MANILA vs JPV MARIKINA FC2 - 1
2017-07-15 16:00:40July 15, 2017 FC MERALCO MANILA vs CERES NEGROS FC0 - 7
2017-07-22 16:00:54July 22, 2017 FC MERALCO MANILA vs GLOBAL CEBU FC2 - 2
2017-07-29 16:00:57July 29, 2017 DAVAO AGUILAS FC vs FC MERALCO MANILA2 - 3
2017-08-02 16:00:50August 2, 2017 FC MERALCO MANILA vs GLOBAL CEBU FC1 - 2
2017-08-05 19:00:51August 5, 2017 FC MERALCO MANILA vs KAYA FC-MAKATI2 - 1
2017-08-12 16:00:33August 12, 2017 STALLION LAGUNA FC vs FC MERALCO MANILA2 - 3
2017-08-16 16:00:08August 16, 2017 CERES NEGROS FC vs FC MERALCO MANILA1 - 2
2017-08-20 19:00:17August 20, 2017 FC MERALCO MANILA vs ILOCOS UNITED FC1 - 0
2017-08-23 16:00:39August 23, 2017 JPV MARIKINA FC vs FC MERALCO MANILA1 - 1
2017-09-16 16:00:30September 16, 2017 GLOBAL CEBU FC vs FC MERALCO MANILA0 - 0
2017-09-23 19:00:44September 23, 2017 FC MERALCO MANILA vs DAVAO AGUILAS FC2 - 0
2017-09-30 16:00:27September 30, 2017 KAYA FC-MAKATI vs FC MERALCO MANILA2 - 1
2017-10-14 16:00:39October 14, 2017 FC MERALCO MANILA vs STALLION LAGUNA FC0 - 0
2017-10-20 19:00:58October 20, 2017 ILOCOS UNITED FC vs FC MERALCO MANILA0 - 3
2017-10-28 19:00:31October 28, 2017 FC MERALCO MANILA vs KAYA FC-MAKATI1 - 0
2017-10-31 16:00:47October 31, 2017 FC MERALCO MANILA vs JPV MARIKINA1 - 0
2017-11-05 19:00:12November 5, 2017 CERES NEGROS FC vs FC MERALCO MANILA6 - 0
2017-11-19 19:00:51November 19, 2017 GLOBAL CEBU FC vs FC MERALCO MANILA1 - 2
2017-11-24 15:00:21November 24, 2017 FC MERALCO MANILA vs CERES NEGROS FC0 - 0